GW5586 Weather Reports


time (UTC)temp
F
wind
direction
speed
knots
gust
knots
rain 1hr
in
rain 24hr
in
rain mn
in
humidity
%
barometer
mb
20260506051111 47 281 8.7 16.5 0.00 0.00 0.00 71 1017.7
20260506050547 47 261 8.7 13.9 0.00 0.00 0.00 71 1017.7
20260506050209 48 285 7.0 15.6 0.00 0.00 0.00 70 1017.7
20260506045100 48 292 7.0 15.6 0.00 0.00 0.00 70 1017.6
20260506044652 48 272 7.0 15.6 0.00 0.00 0.00 70 1017.7
20260506044034 48 298 6.1 14.8 0.00 0.00 0.00 70 1017.6
20260506043521 48 248 7.8 15.6 0.00 0.00 0.00 70 1017.6
20260506043110 48 300 8.7 15.6 0.00 0.00 0.00 69 1017.3
20260506042611 48 288 7.0 14.8 0.00 0.00 0.00 69 1017.2
20260506042111 49 288 6.1 13.0 0.00 0.00 0.00 68 1017.0
20260506041647 49 267 7.0 13.9 0.00 0.00 0.00 68 1016.8
20260506041023 49 284 7.0 13.9 0.00 0.00 0.00 68 1016.8
20260506040529 49 317 7.0 12.2 0.00 0.00 0.00 67 1016.8
20260506040118 50 340 4.3 13.9 0.00 0.00 0.00 66 1016.7
20260506035530 50 290 7.0 14.8 0.00 0.00 0.00 65 1016.5
20260506035028 50 290 9.6 14.8 0.00 0.00 0.00 64 1016.5
20260506034614 51 272 6.1 13.9 0.00 0.00 0.00 64 1016.4
20260506034034 51 340 7.8 13.9 0.00 0.00 0.00 63 1016.0
20260506033548 51 335 6.1 16.5 0.00 0.00 0.00 64 1016.1
20260506033144 52 329 6.1 14.8 0.00 0.00 0.00 63 1016.0
20260506032526 52 308 7.0 16.5 0.00 0.00 0.00 62 1016.0
20260506032110 52 293 9.6 15.6 0.00 0.00 0.00 62 1016.0
20260506031625 53 312 8.7 14.8 0.00 0.00 0.00 61 1015.9
20260506031019 53 347 7.8 15.6 0.00 0.00 0.00 60 1015.8
20260506030522 53 334 7.0 14.8 0.00 0.00 0.00 59 1015.8
20260506030132 53 266 7.0 13.0 0.00 0.00 0.00 59 1015.8
20260506025616 54 285 7.8 14.8 0.00 0.00 0.00 59 1015.7
20260506025034 54 320 8.7 14.8 0.00 0.00 0.00 59 1015.6
20260506024616 54 327 7.8 14.8 0.00 0.00 0.00 57 1015.6
20260506024057 54 317 7.0 14.8 0.00 0.00 0.00 57 1015.6
20260506023615 55 297 7.8 16.5 0.00 0.00 0.00 56 1015.6
20260506023110 55 317 7.0 16.5 0.00 0.00 0.00 57 1015.4
20260506022533 55 340 7.0 15.6 0.00 0.00 0.00 57 1015.2
20260506022035 55 333 7.8 17.4 0.00 0.00 0.00 56 1015.2
20260506021628 55 319 8.7 17.4 0.00 0.00 0.00 56 1015.3
20260506021030 55 275 7.0 17.4 0.00 0.00 0.00 56 1015.3
20260506020519 55 300 9.6 17.4 0.00 0.00 0.00 55 1015.3
20260506020110 56 275 5.2 15.6 0.00 0.00 0.00 56 1015.3
20260506015545 56 298 7.0 15.6 0.00 0.00 0.00 54 1015.2
20260506015031 56 318 7.0 15.6 0.00 0.00 0.00 54 1015.3
20260506014611 56 223 7.8 15.6 0.00 0.00 0.00 54 1015.3
20260506014044 56 316 7.8 15.6 0.00 0.00 0.00 56 1015.3
20260506013546 56 317 7.0 15.6 0.00 0.00 0.00 55 1015.2
20260506013105 56 316 7.8 17.4 0.00 0.00 0.00 57 1015.2
20260506012535 56 342 8.7 17.4 0.00 0.00 0.00 58 1015.2
20260506012032 56 344 11.3 16.5 0.00 0.00 0.00 58 1015.2
20260506011615 56 324 9.6 16.5 0.00 0.00 0.00 57 1015.2
20260506011032 57 320 8.7 17.4 0.00 0.00 0.00 58 1015.2
20260506010519 57 318 7.8 17.4 0.00 0.00 0.00 58 1015.2
20260506010153 57 348 7.8 15.6 0.00 0.00 0.00 57 1015.3
20260506005522 57 323 9.6 17.4 0.00 0.00 0.00 57 1015.2
20260506005030 57 313 11.3 17.4 0.00 0.00 0.00 56 1015.2
20260506004555 57 321 8.7 17.4 0.00 0.00 0.00 57 1015.0
20260506004022 58 342 8.7 14.8 0.00 0.00 0.00 58 1015.2
20260506003522 58 313 6.1 14.8 0.00 0.00 0.00 59 1015.1
20260506003137 58 315 7.0 15.6 0.00 0.00 0.00 58 1015.2
20260506002546 58 321 9.6 15.6 0.00 0.00 0.00 56 1015.2
20260506002037 58 326 7.0 14.8 0.00 0.00 0.00 57 1015.2
20260506001631 58 283 7.0 14.8 0.00 0.00 0.00 57 1015.2
20260506001039 59 304 9.6 18.2 0.00 0.00 0.00 58 1015.3
20260506000542 59 327 8.7 16.5 0.00 0.00 0.00 58 1015.2
20260506000134 59 340 7.0 14.8 0.00 0.00 0.00 56 1015.2
20260505235530 59 332 7.8 15.6 0.00 0.00 0.00 57 1015.1
20260505235048 59 305 6.1 15.6 0.00 0.00 0.00 59 1015.1
20260505234611 58 330 8.7 15.6 0.00 0.00 0.00 59 1015.1
20260505234019 58 296 9.6 14.8 0.00 0.00 0.00 60 1015.0
20260505233529 59 286 9.6 14.8 0.00 0.00 0.00 59 1015.2
20260505233131 60 324 7.8 13.0 0.00 0.00 0.00 57 1015.2
20260505232542 60 327 7.0 12.2 0.00 0.00 0.00 57 1015.2
20260505232028 61 289 4.3 11.3 0.00 0.00 0.00 57 1015.1
20260505231616 61 288 5.2 11.3 0.00 0.00 0.00 55 1015.1
20260505231038 61 352 5.2 11.3 0.00 0.00 0.00 54 1015.1
20260505230518 61 314 4.3 13.9 0.00 0.00 0.00 56 1015.0
20260505230118 60 321 5.2 13.9 0.00 0.00 0.00 56 1014.9
20260505225536 61 328 4.3 9.6 0.00 0.00 0.00 55 1014.9
20260505225030 61 22 3.5 7.0 0.00 0.00 0.00 56 1015.0
20260505224641 61 9 3.5 13.9 0.00 0.00 0.00 57 1015.0
20260505224016 60 316 2.6 13.9 0.00 0.00 0.00 56 1015.0
20260505223513 61 321 5.2 13.0 0.00 0.00 0.00 55 1014.7
20260505223109 61 13 5.2 12.2 0.00 0.00 0.00 55 1014.9
20260505222605 61 320 6.1 15.6 0.00 0.00 0.00 56 1015.0
20260505222034 61 318 7.0 15.6 0.00 0.00 0.00 55 1014.9
20260505221623 62 347 3.5 11.3 0.00 0.00 0.00 55 1015.1
20260505221109 63 318 4.3 11.3 0.00 0.00 0.00 54 1015.2
20260505220607 64 328 5.2 11.3 0.00 0.00 0.00 53 1015.1
20260505220054 65 5 2.6 4.3 0.00 0.00 0.00 56 1015.0
20260505215535 65 33 0.9 6.1 0.00 0.00 0.00 58 1015.0
20260505215034 64 326 1.7 6.1 0.00 0.00 0.00 52 1014.9
20260505214609 65 135 1.7 3.5 0.00 0.00 0.00 59 1014.9
20260505214113 65 19 1.7 3.5 0.00 0.00 0.00 60 1014.8
20260505213535 64 33 1.7 4.3 0.00 0.00 0.00 60 1014.7
20260505213106 64 77 1.7 4.3 0.00 0.00 0.00 61 1014.7
20260505212556 65 38 2.6 4.3 0.00 0.00 0.00 61 1014.6
20260505212037 65 38 1.7 5.2 0.00 0.00 0.00 59 1014.6
20260505211535 65 13 0.9 7.8 0.00 0.00 0.00 59 1014.6
20260505211031 65 26 3.5 7.8 0.00 0.00 0.00 58 1014.5
20260505210521 65 67 1.7 7.8 0.00 0.00 0.00 59 1014.5
20260505210130 66 72 2.6 7.8 0.00 0.00 0.00 57 1014.3
20260505205530 66 39 2.6 7.8 0.00 0.00 0.00 55 1014.3
20260505205041 66 53 2.6 7.8 0.00 0.00 0.00 55 1014.3
20260505204532 66 40 3.5 7.8 0.00 0.00 0.00 56 1014.2
20260505204034 66 45 2.6 5.2 0.00 0.00 0.00 59 1014.1
20260505203542 66 59 1.7 4.3 0.00 0.00 0.00 57 1014.2
20260505203138 66 340 1.7 5.2 0.00 0.00 0.00 53 1014.2
20260505202539 65 317 1.7 7.0 0.00 0.00 0.00 53 1014.0
20260505202021 65 274 3.5 7.0 0.00 0.00 0.00 52 1014.0
20260505201548 65 277 2.6 5.2 0.00 0.00 0.00 52 1013.9
20260505201038 65 325 3.5 5.2 0.00 0.00 0.00 53 1013.9
20260505200535 65 11 1.7 6.1 0.00 0.00 0.00 53 1014.0
20260505200059 65 352 2.6 9.6 0.00 0.00 0.00 53 1014.0
20260505195538 65 246 5.2 9.6 0.00 0.00 0.00 52 1014.1
20260505195038 65 89 1.7 7.0 0.00 0.00 0.00 54 1014.0
20260505194631 65 195 2.6 7.0 0.00 0.00 0.00 52 1014.0
20260505194034 64 211 1.7 7.0 0.00 0.00 0.00 55 1014.0
20260505193531 63 222 2.6 7.0 0.00 0.00 0.00 55 1013.9
20260505193135 63 327 2.6 8.7 0.00 0.00 0.00 58 1013.7
20260505192543 62 299 3.5 9.6 0.00 0.00 0.00 59 1013.6
20260505192107 62 338 4.3 9.6 0.00 0.00 0.00 60 1013.6
20260505191632 62 319 4.3 9.6 0.00 0.00 0.00 59 1013.8
20260505191021 62 300 4.3 9.6 0.00 0.00 0.00 60 1013.7
20260505190610 62 315 3.5 7.0 0.00 0.00 0.00 61 1013.7
20260505190103 62 305 3.5 7.0 0.00 0.00 0.00 61 1013.6
20260505185520 61 217 0.9 8.7 0.00 0.00 0.00 63 1013.6
20260505185035 62 140 3.5 8.7 0.00 0.00 0.00 61 1013.6
20260505184627 61 315 1.7 7.0 0.00 0.00 0.00 63 1013.5
20260505184021 61 327 2.6 7.0 0.00 0.00 0.00 62 1013.5
20260505183616 61 15 3.5 7.0 0.00 0.00 0.00 61 1013.5
20260505183127 61 360 2.6 3.5 0.00 0.00 0.00 61 1013.6
20260505182525 61 360 1.7 3.5 0.00 0.00 0.00 62 1013.5
20260505182048 62 5 1.7 2.6 0.00 0.00 0.00 60 1013.4
20260505181635 62 56 0.9 2.6 0.00 0.00 0.00 60 1013.4
20260505181035 62 31 0.9 2.6 0.00 0.00 0.00 61 1013.5
20260505180533 61 57 0.9 2.6 0.00 0.00 0.00 61 1013.5
20260505180151 61 60 0.9 2.6 0.00 0.00 0.00 62 1013.3
20260505175530 61 47 1.7 3.5 0.00 0.00 0.00 61 1013.3
20260505175017 61 33 2.6 3.5 0.00 0.00 0.00 62 1013.2
20260505174538 60 39 1.7 3.5 0.00 0.00 0.00 63 1013.2
20260505174041 60 61 0.9 4.3 0.00 0.00 0.00 62 1013.2
20260505173620 60 59 2.6 4.3 0.00 0.00 0.00 63 1013.2
20260505173107 59 36 1.7 3.5 0.00 0.00 0.00 65 1013.2
20260505172518 59 21 1.7 4.3 0.00 0.00 0.00 65 1013.1
20260505172019 59 53 1.7 4.3 0.00 0.00 0.00 67 1013.1
20260505171619 59 20 2.6 4.3 0.00 0.00 0.00 68 1013.0
20260505171046 59 32 2.6 4.3 0.00 0.00 0.00 68 1012.9
20260505170525 58 51 1.7 3.5 0.00 0.00 0.00 69 1012.9
20260505170124 58 62 1.7 3.5 0.00 0.00 0.00 69 1013.0
20260505165525 58 39 1.7 3.5 0.00 0.00 0.00 68 1013.0
20260505165106 59 44 1.7 4.3 0.00 0.00 0.00 69 1013.0
20260505164603 58 58 2.6 3.5 0.00 0.00 0.00 69 1013.0
20260505164026 58 51 1.7 3.5 0.00 0.00 0.00 71 1013.0
20260505163525 57 38 1.7 3.5 0.00 0.00 0.00 70 1012.9
20260505163058 57 11 0.9 2.6 0.00 0.00 0.00 70 1012.9
20260505162558 57 5 0.9 2.6 0.00 0.00 0.00 71 1012.9
20260505162022 57 44 0.9 2.6 0.00 0.00 0.00 71 1012.8
20260505161613 57 64 1.7 2.6 0.00 0.00 0.00 72 1012.7
20260505161030 56 44 0.9 2.6 0.00 0.00 0.00 73 1012.8
20260505160616 56 25 0.9 2.6 0.00 0.00 0.00 74 1012.7
20260505153053 55 19 0.9 2.6 0.00 0.00 0.00 75 1012.2
20260505152528 55 36 0.9 2.6 0.00 0.00 0.00 74 1012.3
20260505152045 55 40 0.9 3.5 0.00 0.00 0.00 74 1012.2
20260505151640 55 154 0.9 3.5 0.00 0.00 0.00 74 1012.1
20260505151038 56 37 1.7 2.6 0.00 0.00 0.00 74 1012.0
20260505150536 55 80 0.9 2.6 0.00 0.00 0.00 73 1012.0
20260505140541 53 5 0.0 1.7 0.00 0.00 0.00 79 1011.7
20260505140121 53 5 0.0 1.7 0.00 0.00 0.00 78 1011.6
20260505130200 50 169 1.7 4.3 0.00 0.00 0.00 75 1011.3
20260505124645 50 115 1.7 3.5 0.00 0.00 0.00 77 1011.2
20260505124046 51 121 1.7 5.2 0.00 0.00 0.00 77 1011.2
20260505123536 51 104 2.6 5.2 0.00 0.00 0.00 76 1011.2
20260505123111 51 137 0.9 2.6 0.00 0.00 0.00 75 1011.2
20260505122526 51 105 0.9 2.6 0.00 0.00 0.00 74 1011.2
20260505122057 51 119 0.9 2.6 0.00 0.00 0.00 74 1011.2
20260505121618 50 127 0.9 2.6 0.00 0.00 0.00 75 1011.2
20260505121025 50 123 0.9 2.6 0.00 0.00 0.00 76 1011.2
20260505120534 50 134 1.7 2.6 0.00 0.00 0.00 77 1011.2
20260505120127 50 124 0.9 2.6 0.00 0.00 0.00 76 1011.2
20260505115530 51 158 0.0 2.6 0.00 0.00 0.00 75 1011.2
20260505115016 51 158 0.9 2.6 0.00 0.00 0.00 77 1011.1
20260505114627 51 89 0.9 5.2 0.00 0.00 0.00 76 1011.2
20260505114037 51 130 0.9 5.2 0.00 0.00 0.00 77 1011.0
20260505113533 51 120 1.7 3.5 0.00 0.00 0.00 78 1011.2
20260505113120 51 110 1.7 3.5 0.00 0.00 0.00 76 1011.2
20260505112533 51 102 0.9 2.6 0.00 0.00 0.00 75 1011.1
20260505112048 52 104 0.9 3.5 0.00 0.00 0.00 74 1011.0
20260505111601 52 121 1.7 3.5 0.00 0.00 0.00 75 1011.0
20260505111027 52 119 0.9 2.6 0.00 0.00 0.00 72 1010.9
20260505110540 52 137 0.9 5.2 0.00 0.00 0.00 72 1010.9
20260505102040 54 130 0.9 3.5 0.00 0.00 0.00 69 1010.9
20260505101608 54 134 1.7 3.5 0.00 0.00 0.00 69 1011.0
20260505101100 54 139 1.7 6.1 0.00 0.00 0.00 70 1010.9
20260505100525 54 135 2.6 6.1 0.00 0.00 0.00 71 1011.0
20260505100101 54 147 1.7 4.3 0.00 0.00 0.00 71 1011.0
20260505095548 54 133 0.9 3.5 0.00 0.00 0.00 70 1011.0
20260505095016 54 132 1.7 3.5 0.00 0.00 0.00 70 1011.0
20260505094626 54 113 0.9 3.5 0.00 0.00 0.00 68 1011.0
20260505094022 55 139 0.9 2.6 0.00 0.00 0.00 66 1011.2
20260505093548 56 134 0.9 5.2 0.00 0.00 0.00 65 1011.1
20260505093117 56 100 1.7 5.2 0.00 0.00 0.00 65 1011.1
20260505092603 56 101 2.6 7.0 0.00 0.00 0.00 65 1011.0
20260505092108 56 138 2.6 7.0 0.00 0.00 0.00 65 1010.9
20260505091623 55 127 1.7 3.5 0.00 0.00 0.00 67 1010.9
20260505091049 56 130 1.7 3.5 0.00 0.00 0.00 67 1010.8
20260505090612 55 138 1.7 3.5 0.00 0.00 0.00 68 1010.8
20260505090113 55 125 1.7 4.3 0.00 0.00 0.00 68 1010.8
20260505085600 54 101 1.7 3.5 0.00 0.00 0.00 70 1010.8
20260505085109 54 136 0.9 3.5 0.00 0.00 0.00 72 1010.8
20260505084615 54 130 1.7 3.5 0.00 0.00 0.00 71 1010.9
20260505084056 54 144 1.7 4.3 0.00 0.00 0.00 72 1010.9
20260505083557 54 126 1.7 2.6 0.00 0.00 0.00 72 1011.0
20260505083120 55 103 1.7 2.6 0.00 0.00 0.00 70 1011.0
20260505082550 55 142 0.9 3.5 0.00 0.00 0.00 70 1010.9
20260505082116 56 118 0.9 5.2 0.00 0.00 0.00 69 1010.9
20260505081629 56 127 1.7 6.1 0.00 0.00 0.00 69 1010.9
20260505081058 57 113 1.7 7.0 0.00 0.00 0.00 67 1010.9
20260505080610 57 130 1.7 7.0 0.00 0.00 0.00 66 1011.0
20260505080109 58 142 2.6 6.1 0.00 0.00 0.00 64 1010.9
20260505075602 58 130 2.6 7.0 0.00 0.00 0.00 63 1010.8
20260505075112 58 136 3.5 7.0 0.00 0.00 0.00 64 1010.8
20260505074610 58 132 3.5 6.1 0.00 0.00 0.00 63 1010.7
20260505074106 58 109 2.6 4.3 0.00 0.00 0.00 61 1010.8
20260505073548 58 118 1.7 3.5 0.00 0.00 0.00 60 1010.8
20260505073130 58 138 1.7 4.3 0.00 0.00 0.00 61 1010.8
20260505072603 57 148 1.7 4.3 0.00 0.00 0.00 62 1011.0
20260505072017 56 148 1.7 3.5 0.00 0.00 0.00 67 1010.9
20260505071550 55 128 0.9 4.3 0.00 0.00 0.00 69 1010.8
20260505071045 55 159 0.9 1.7 0.00 0.00 0.00 68 1010.8
20260505070547 55 223 0.0 2.6 0.00 0.00 0.00 69 1010.9
20260505070130 55 223 1.7 2.6 0.00 0.00 0.00 69 1010.9
20260505065541 56 235 1.7 2.6 0.00 0.00 0.00 68 1011.0
20260505065026 56 246 0.9 1.7 0.00 0.00 0.00 66 1011.0
20260505064618 57 157 0.0 0.9 0.00 0.00 0.00 64 1010.8
20260505064057 57 157 0.0 1.7 0.00 0.00 0.00 64 1010.7
20260505063557 57 157 0.0 1.7 0.00 0.00 0.00 63 1010.7
20260505063118 58 157 0.0 1.7 0.00 0.00 0.00 64 1010.7
20260505062517 58 157 0.0 1.7 0.00 0.00 0.00 62 1010.7
20260505062036 58 157 0.9 2.6 0.00 0.00 0.00 61 1010.7
20260505061550 57 157 1.7 3.5 0.00 0.00 0.00 61 1010.8
20260505061019 57 250 1.7 2.6 0.00 0.00 0.00 64 1010.7
20260505060519 58 129 0.9 2.6 0.00 0.00 0.00 63 1010.8
20260505060131 58 240 0.9 2.6 0.00 0.00 0.00 62 1010.7
20260505055531 58 321 0.0 2.6 0.00 0.00 0.00 61 1010.8